User: anonymous   Login
Location: Unspecified
(48.5539°N, 71.6350°W)
Time: 02:29:19
(UTC-04:00)
Language:

ISS - Orbit

View from above orbital plane
View from above orbital plane
View from above satellite
View from above satellite

Ground track
Ground track

The orbit data is extracted from the following two-line orbital elements,

1 25544U 98067A   20226.61897460  .00016717  00000-0  10270-3 0  9044
2 25544  51.6405  64.2350 0001227  22.4783 337.6421 15.49126826   911
Epoch (UTC): 13 August 2020 14:51:19
Eccentricity: 0.0001227
inclination: 51.6405°
perigee height: 418 km
apogee height: 420 km
right ascension of ascending node: 64.2350°
argument of perigee: 22.4783°
revolutions per day: 15.49126826
mean anomaly at epoch: 337.6421°
orbit number at epoch: 91

The dashed part of the orbit path shows where the satellite is in the earth's shadow,  

DLR